• In Deutschland
  • Länderverzeichnis
  • Für 7 Tage
  • Wassertemperatur
  • Satellitenkarten
  • Wetterkarte
  • Widgets
  • user-avatar
    Anmelden

    Stündliche Wetter Quito

    Heute, 26 April, Mittwoch

    Zeit Temperatur Niederschläge Wind Luftdruck Luftfeuchtigkeit
    00:00 +16°C° 0 mm 1 m/S 622 mmHg 88%
    01:00 +16°C° 0 mm 1 m/S 622 mmHg 87%
    02:00 +16°C° 0 mm 1 m/S 622 mmHg 88%
    03:00 +16°C° 0 mm 1 m/S 622 mmHg 89%
    04:00 +16°C° 0 mm 1 m/S 622 mmHg 90%
    05:00 +16°C° 0 mm 1 m/S 623 mmHg 91%
    06:00 +16°C° 0 mm 1 m/S 623 mmHg 91%
    07:00 +18°C° 0 mm 1 m/S 624 mmHg 87%
    08:00 +18°C° 0 mm 2 m/S 624 mmHg 80%
    09:00 +20°C° 0 mm 2 m/S 625 mmHg 72%
    10:00 +22°C° 0 mm 3 m/S 625 mmHg 64%
    11:00 +24°C° 0,2 mm 3 m/S 625 mmHg 62%
    12:00 +25°C° 0,2 mm 3 m/S 625 mmHg 59%
    13:00 +25°C° 0,2 mm 2 m/S 624 mmHg 57%
    14:00 +25°C° 0,2 mm 2 m/S 624 mmHg 58%
    15:00 +25°C° 0,2 mm 2 m/S 624 mmHg 60%
    16:00 +25°C° 0,2 mm 1 m/S 623 mmHg 62%
    17:00 +22°C° 0,1 mm 1 m/S 623 mmHg 71%
    18:00 +20°C° 0,1 mm 1 m/S 622 mmHg 80%
    19:00 +18°C° 0,1 mm 1 m/S 622 mmHg 88%
    20:00 +16°C° 0 mm 1 m/S 622 mmHg 89%
    21:00 +16°C° 0 mm 1 m/S 622 mmHg 91%
    22:00 +15°C° 0 mm 1 m/S 622 mmHg 92%
    23:00 +15°C° 0 mm 1 m/S 622 mmHg 92%

    Morgen, 27 April, Donnerstag

    Zeit Temperatur Niederschläge Wind Luftdruck Luftfeuchtigkeit
    00:00 +15°C° 0 mm 1 m/S 622 mmHg 93%
    01:00 +15°C° 0 mm 1 m/S 622 mmHg 93%
    02:00 +15°C° 0 mm 1 m/S 622 mmHg 93%
    03:00 +14°C° 0 mm 1 m/S 622 mmHg 94%
    04:00 +14°C° 0 mm 1 m/S 622 mmHg 94%
    05:00 +15°C° 0 mm 1 m/S 622 mmHg 93%
    06:00 +15°C° 0 mm 1 m/S 623 mmHg 92%
    07:00 +16°C° 0 mm 1 m/S 624 mmHg 91%
    08:00 +18°C° 0 mm 2 m/S 624 mmHg 81%
    09:00 +20°C° 0 mm 3 m/S 625 mmHg 70%
    10:00 +23°C° 0 mm 4 m/S 626 mmHg 60%
    11:00 +25°C° 0 mm 3 m/S 626 mmHg 56%
    12:00 +26°C° 0 mm 3 m/S 625 mmHg 51%
    13:00 +27°C° 0 mm 3 m/S 625 mmHg 47%
    14:00 +26°C° 0 mm 3 m/S 625 mmHg 48%
    15:00 +26°C° 0 mm 3 m/S 624 mmHg 49%
    16:00 +26°C° 0 mm 3 m/S 624 mmHg 49%
    17:00 +23°C° 0 mm 2 m/S 623 mmHg 59%
    18:00 +20°C° 0 mm 2 m/S 623 mmHg 68%
    19:00 +17°C° 0 mm 2 m/S 622 mmHg 77%
    20:00 +16°C° 0 mm 1 m/S 622 mmHg 80%
    21:00 +16°C° 0 mm 1 m/S 623 mmHg 82%
    22:00 +15°C° 0 mm 1 m/S 623 mmHg 84%
    23:00 +15°C° 0 mm 1 m/S 623 mmHg 86%

    übermorgen, 28 April, Freitag

    Zeit Temperatur Niederschläge Wind Luftdruck Luftfeuchtigkeit
    00:00 +14°C° 0 mm 1 m/S 622 mmHg 88%
    01:00 +13°C° 0 mm 1 m/S 622 mmHg 90%
    02:00 +13°C° 0 mm 1 m/S 622 mmHg 91%
    03:00 +13°C° 0 mm 1 m/S 622 mmHg 92%
    04:00 +12°C° 0 mm 1 m/S 621 mmHg 93%
    05:00 +13°C° 0 mm 1 m/S 622 mmHg 90%
    06:00 +14°C° 0 mm 1 m/S 623 mmHg 87%
    07:00 +15°C° 0 mm 1 m/S 624 mmHg 85%
    08:00 +18°C° 0 mm 2 m/S 625 mmHg 75%
    09:00 +20°C° 0 mm 3 m/S 626 mmHg 65%
    10:00 +22°C° 0 mm 4 m/S 627 mmHg 55%
    11:00 +24°C° 0 mm 3 m/S 626 mmHg 51%
    12:00 +26°C° 0 mm 3 m/S 626 mmHg 46%
    13:00 +27°C° 0 mm 3 m/S 626 mmHg 42%
    14:00 +26°C° 0 mm 2 m/S 625 mmHg 43%
    15:00 +26°C° 0 mm 2 m/S 624 mmHg 45%
    16:00 +26°C° 0 mm 2 m/S 624 mmHg 46%
    17:00 +23°C° 0 mm 2 m/S 623 mmHg 55%
    18:00 +19°C° 0 mm 2 m/S 623 mmHg 64%
    19:00 +16°C° 0 mm 2 m/S 622 mmHg 73%
    20:00 +16°C° 0 mm 1 m/S 623 mmHg 76%
    21:00 +15°C° 0 mm 1 m/S 623 mmHg 79%
    22:00 +15°C° 0 mm 1 m/S 623 mmHg 82%
    23:00 +14°C° 0 mm 1 m/S 623 mmHg 84%

    29 April, Samstag

    Zeit Temperatur Niederschläge Wind Luftdruck Luftfeuchtigkeit
    00:00 +14°C° 0 mm 1 m/S 623 mmHg 86%
    01:00 +13°C° 0 mm 1 m/S 623 mmHg 88%
    02:00 +13°C° 0 mm 1 m/S 623 mmHg 89%
    03:00 +13°C° 0 mm 1 m/S 622 mmHg 90%
    04:00 +13°C° 0 mm 1 m/S 622 mmHg 92%
    05:00 +13°C° 0 mm 1 m/S 623 mmHg 90%
    06:00 +14°C° 0 mm 1 m/S 624 mmHg 88%
    07:00 +15°C° 0 mm 1 m/S 625 mmHg 86%
    08:00 +17°C° 0 mm 2 m/S 626 mmHg 77%
    09:00 +20°C° 0 mm 3 m/S 626 mmHg 67%
    10:00 +22°C° 0 mm 4 m/S 627 mmHg 57%
    11:00 +23°C° 0 mm 4 m/S 627 mmHg 53%
    12:00 +25°C° 0 mm 3 m/S 626 mmHg 49%
    13:00 +26°C° 0 mm 3 m/S 626 mmHg 45%
    14:00 +25°C° 0 mm 3 m/S 625 mmHg 46%
    15:00 +25°C° 0 mm 3 m/S 625 mmHg 48%
    16:00 +24°C° 0 mm 3 m/S 624 mmHg 50%
    17:00 +21°C° 0 mm 2 m/S 624 mmHg 60%
    18:00 +18°C° 0 mm 2 m/S 623 mmHg 70%
    19:00 +16°C° 0 mm 1 m/S 623 mmHg 80%
    20:00 +15°C° 0 mm 1 m/S 623 mmHg 82%
    21:00 +14°C° 0 mm 1 m/S 623 mmHg 84%
    22:00 +14°C° 0 mm 1 m/S 623 mmHg 85%
    23:00 +13°C° 0 mm 1 m/S 623 mmHg 87%

    30 April, Sonntag

    Zeit Temperatur Niederschläge Wind Luftdruck Luftfeuchtigkeit
    00:00 +13°C° 0 mm 1 m/S 623 mmHg 89%
    01:00 +12°C° 0 mm 1 m/S 622 mmHg 91%
    02:00 +12°C° 0 mm 1 m/S 622 mmHg 91%
    03:00 +12°C° 0 mm 1 m/S 622 mmHg 91%
    04:00 +12°C° 0 mm 1 m/S 622 mmHg 91%
    05:00 +13°C° 0 mm 1 m/S 623 mmHg 89%
    06:00 +14°C° 0 mm 1 m/S 624 mmHg 87%
    07:00 +14°C° 0 mm 1 m/S 625 mmHg 85%
    08:00 +17°C° 0 mm 2 m/S 625 mmHg 73%
    09:00 +19°C° 0 mm 3 m/S 626 mmHg 60%
    10:00 +22°C° 0 mm 4 m/S 627 mmHg 48%
    11:00 +22°C° 0 mm 4 m/S 626 mmHg 46%
    12:00 +23°C° 0 mm 4 m/S 626 mmHg 43%
    13:00 +25°C° 0 mm 4 m/S 625 mmHg 41%
    14:00 +25°C° 0 mm 3 m/S 625 mmHg 42%
    15:00 +24°C° 0 mm 3 m/S 624 mmHg 44%
    16:00 +24°C° 0 mm 3 m/S 624 mmHg 45%
    17:00 +20°C° 0 mm 2 m/S 623 mmHg 54%
    18:00 +18°C° 0 mm 2 m/S 623 mmHg 63%
    19:00 +15°C° 0 mm 2 m/S 623 mmHg 73%
    20:00 +15°C° 0 mm 2 m/S 623 mmHg 74%
    21:00 +14°C° 0 mm 2 m/S 623 mmHg 76%
    22:00 +14°C° 0 mm 1 m/S 623 mmHg 77%
    23:00 +13°C° 0 mm 1 m/S 623 mmHg 80%

    1 Mai, Montag

    Zeit Temperatur Niederschläge Wind Luftdruck Luftfeuchtigkeit
    00:00 +13°C° 0 mm 1 m/S 623 mmHg 83%
    01:00 +13°C° 0 mm 1 m/S 622 mmHg 85%
    02:00 +13°C° 0 mm 1 m/S 622 mmHg 85%
    03:00 +13°C° 0 mm 1 m/S 623 mmHg 85%
    04:00 +13°C° 0 mm 1 m/S 623 mmHg 85%
    05:00 +14°C° 0 mm 1 m/S 623 mmHg 83%
    06:00 +14°C° 0 mm 1 m/S 624 mmHg 82%
    07:00 +14°C° 0 mm 2 m/S 624 mmHg 80%
    08:00 +17°C° 0 mm 2 m/S 625 mmHg 69%
    09:00 +19°C° 0 mm 3 m/S 625 mmHg 58%
    10:00 +21°C° 0 mm 4 m/S 626 mmHg 47%
    11:00 +21°C° 0 mm 4 m/S 626 mmHg 45%
    12:00 +22°C° 0 mm 3 m/S 625 mmHg 42%
    13:00 +24°C° 0 mm 3 m/S 625 mmHg 40%
    14:00 +24°C° 0 mm 3 m/S 624 mmHg 41%
    15:00 +24°C° 0 mm 3 m/S 624 mmHg 42%
    16:00 +24°C° 0 mm 3 m/S 624 mmHg 44%
    17:00 +20°C° 0 mm 2 m/S 623 mmHg 52%
    18:00 +17°C° 0 mm 2 m/S 623 mmHg 61%
    19:00 +15°C° 0 mm 2 m/S 623 mmHg 70%
    20:00 +14°C° 0 mm 2 m/S 623 mmHg 72%
    21:00 +14°C° 0 mm 2 m/S 623 mmHg 73%
    22:00 +14°C° 0 mm 2 m/S 623 mmHg 75%
    23:00 +13°C° 0 mm 2 m/S 623 mmHg 78%
    Mehr zeigen